Location: Wald
(31.7579°N, 86.6655°W)
Time: 21:14:17
(UTC+00:00)

Cosmos 1943 Rocket - Pass Details

Date: 14 July 2020
Orbit: 811 x 845 km, 71.0° (Epoch: 13 August)

Event Time Altitude Azimuth Distance (km) Brightness Sun altitude
Rises 04:53:59 0° 338° (NNW) 3,402 6.4 -34.8°
Reaches altitude 10° 04:56:26 10° 337° (NNW) 2,461 5.4 -35.0°
Enters shadow 04:59:55 39° 332° (NNW) 1,237 3.4 -35.2°
